This is the latest recevied weather packets stored in our database for station/object N1HQ. If no packets are shown the sender has not sent any weather packets the latest 10 day(s).
| Time | Temp. | Humidity | Pressure | Rain* | Wind** | Luminosity | Snow |
|---|---|---|---|---|---|---|---|
| 1777879078 | 11.11° C | 99% | 1016 hPa | 0 mm | - | - | - |
| 1777878808 | 10.56° C | 98% | 1016.1 hPa | 0 mm | - | - | - |
| 1777878508 | 11.11° C | 98% | 1016.1 hPa | 0 mm | - | - | - |
| 1777878224 | 11.11° C | 98% | 1016.1 hPa | 0 mm | - | - | - |
| 1777877935 | 11.11° C | 97% | 1016.1 hPa | 0 mm | - | - | - |
| 1777877683 | 11.67° C | 97% | 1016.2 hPa | 0 mm | - | - | - |
| 1777877408 | 11.67° C | 98% | 1016.2 hPa | 0 mm | - | - | - |
| 1777877148 | 11.67° C | 98% | 1016.1 hPa | 0 mm | - | - | - |
| 1777876883 | 11.67° C | 97% | 1016.3 hPa | 0 mm | - | - | - |
| 1777876623 | 11.67° C | 97% | 1016.3 hPa | 0 mm | - | - | - |
| 1777876323 | 11.67° C | 97% | 1016.4 hPa | 0 mm | - | - | - |
| 1777876076 | 12.22° C | 98% | 1016.3 hPa | 0 mm | - | - | - |
| 1777875803 | 12.22° C | 97% | 1016.2 hPa | 0 mm | - | - | - |
| 1777875516 | 12.22° C | 98% | 1016.4 hPa | 0 mm | - | - | - |
| 1777875258 | 12.22° C | 98% | 1016.3 hPa | 0 mm | - | - | - |
| 1777874968 | 12.22° C | 97% | 1016.6 hPa | 0 mm | - | - | - |
| 1777874693 | 12.22° C | 97% | 1016.7 hPa | 0 mm | - | - | - |
| 1777874413 | 12.22° C | 97% | 1016.7 hPa | 0 mm | - | - | - |
| 1777874133 | 12.78° C | 97% | 1016.7 hPa | 0 mm | - | - | - |
| 1777873894 | 12.78° C | 98% | 1016.6 hPa | 0 mm | - | - | - |
| 1777873613 | 12.22° C | 98% | 1016.6 hPa | 0 mm | - | - | - |
| 1777873348 | 11.67° C | 97% | 1016.7 hPa | 0 mm | - | - | - |
| 1777873053 | 11.67° C | 97% | 1016.6 hPa | 0 mm | - | - | - |
| 1777872768 | 12.22° C | 96% | 1016.6 hPa | 0 mm | - | - | - |
| 1777872488 | 12.22° C | 96% | 1016.6 hPa | 0 mm | - | - | - |
* Rain latest hour (hover to see other rain measurements)
** Current wind speed in m/s (hover to see current wind gust speed)